Location: Unspecified
(0.0000°N, 0.0000°E)
Time: 11:35:27
(UTC+00:00)

Altair - All Passes

Search period start: 07 October 2022 00:00
Search period end: 17 October 2022 00:00
Orbit: 1501 x 1682 km, 47.2° (Epoch: 06 October)

Date Brightness Start Highest point End Pass type
(mag) Time Alt. Az. Time Alt. Az. Time Alt. Az.
07 Oct - 00:36:14 10° SW 00:45:28 81° SE 00:54:56 10° NE night (unlit)
07 Oct - 02:44:00 10° W 02:50:16 20° NW 02:56:41 10° N visible
07 Oct - 11:21:59 10° NNW 11:31:02 37° NE 11:39:54 10° ESE daylight
07 Oct - 13:26:06 10° WNW 13:35:43 50° SW 13:45:07 10° SSE daylight
07 Oct - 22:12:09 10° SSE 22:15:21 12° SE 22:18:34 10° ESE night (unlit)
08 Oct - 00:11:08 10° SSW 00:20:19 73° SE 00:29:41 10° NE night (unlit)
08 Oct - 02:18:13 10° W 02:25:00 22° NW 02:31:59 10° N visible
08 Oct - 10:57:03 10° NNW 11:05:48 33° NE 11:14:21 10° ESE daylight
08 Oct - 13:00:42 10° NW 13:10:31 57° SW 13:20:06 10° SSE daylight
08 Oct - 23:46:04 10° SSW 23:55:09 65° SE 00:04:25 10° NE night (unlit)
09 Oct - 01:52:32 10° W 01:59:46 25° NW 02:07:11 10° N night (unlit)
09 Oct - 10:32:09 10° N 10:40:32 29° NE 10:48:46 10° ESE daylight
09 Oct - 12:35:21 10° NW 12:45:18 63° SW 12:55:03 10° SSE daylight
09 Oct - 14:48:55 10° SW 14:50:36 10° SW 14:52:18 10° SW daylight
09 Oct - 23:21:01 10° SSW 23:29:59 58° SE 23:39:06 10° NE night (unlit)
10 Oct - 01:26:56 10° WSW 01:34:33 29° NW 01:42:21 10° N night (unlit)
10 Oct - 10:07:20 10° N 10:15:16 26° NE 10:23:05 10° E daylight
10 Oct - 12:10:01 10° NW 12:20:06 70° SW 12:29:58 10° SSE daylight
10 Oct - 14:21:28 10° WSW 14:25:16 13° SW 14:29:03 10° SSW daylight
10 Oct - 22:56:00 10° SSW 23:04:50 51° SE 23:13:46 10° NE night (unlit)
11 Oct - 01:01:24 10° WSW 01:09:20 32° NW 01:17:29 10° NNE night (unlit)
11 Oct - 09:42:32 10° N 09:49:59 23° NE 09:57:19 10° E daylight
11 Oct - 11:44:44 10° NW 11:54:53 78° SW 12:04:51 10° SE daylight
11 Oct - 13:54:55 10° WSW 13:59:57 15° SW 14:04:58 10° SSW daylight
11 Oct - 22:31:01 10° SSW 22:39:40 46° SE 22:48:23 10° ENE night (unlit)
12 Oct - 00:35:55 10° WSW 00:44:08 37° NW 00:52:33 10° NNE night (unlit)
12 Oct - 09:17:50 10° N 09:24:41 20° NE 09:31:28 10° E daylight
12 Oct - 11:19:29 10° NW 11:29:41 86° SW 11:39:42 10° SE daylight
12 Oct - 13:28:41 10° W 13:34:39 17° SW 13:40:35 10° S daylight
12 Oct - 22:06:04 10° SSW 22:14:30 40° SE 22:22:57 10° ENE visible
13 Oct - 00:10:30 10° WSW 00:18:56 41° NW 00:27:36 10° NNE night (unlit)
13 Oct - 08:53:14 10° N 08:59:22 17° NE 09:05:28 10° E daylight
13 Oct - 10:54:16 10° NW 11:04:29 86° NE 11:14:30 10° SE daylight
13 Oct - 13:02:38 10° W 13:09:22 20° SW 13:16:02 10° S daylight
13 Oct - 21:41:09 10° SSW 21:49:20 36° SE 21:57:29 10° ENE visible
13 Oct - 23:45:07 10° WSW 23:53:46 46° NW 00:02:36 10° NNE night (unlit)
14 Oct - 08:28:47 10° NNE 08:34:03 15° NE 08:39:17 10° ENE daylight
14 Oct - 10:29:05 10° NW 10:39:16 78° NE 10:49:17 10° SE daylight
14 Oct - 12:36:44 10° W 12:44:05 23° SW 12:51:23 10° S daylight
14 Oct - 21:16:17 10° S 21:24:08 31° SE 21:31:59 10° ENE visible
14 Oct - 23:19:46 10° SW 23:28:35 52° NW 23:37:35 10° NNE night (unlit)
15 Oct - 08:04:35 10° NNE 08:08:43 13° NE 08:12:49 10° ENE daylight
15 Oct - 10:03:56 10° NNW 10:14:03 70° NE 10:24:02 10° SE daylight
15 Oct - 12:10:57 10° W 12:18:50 26° SW 12:26:38 10° S daylight
15 Oct - 20:51:27 10° S 20:58:56 28° SE 21:06:24 10° ENE visible
15 Oct - 22:54:28 10° SW 23:03:25 59° NW 23:12:32 10° NNE night (unlit)
16 Oct - 07:40:59 10° NNE 07:43:21 11° NE 07:45:43 10° ENE daylight
16 Oct - 09:38:49 10° NNW 09:48:49 63° NE 09:58:44 10° SE daylight
16 Oct - 11:45:14 10° WNW 11:53:34 29° SW 12:01:50 10° S daylight
16 Oct - 20:26:40 10° S 20:33:44 24° SE 20:40:44 10° E visible
16 Oct - 22:29:12 10° SW 22:38:16 66° NW 22:47:27 10° NNE visible
